This demonstration page uses our WeatherBlox Daily Observations layout. Learn more.

Left ArrowRight Arrow

Hourly Observations for April 29, 2016

Temp ( °F °C ) Dew Point ( °F °C ) Humidity (%) Winds ( mph kmh ) Pressure ( in mb ) Visibility ( mi km ) Precip ( " mm )
12:51 am 00:51 Clear 53 11.7 21 -6.1 28 28 NW 9 15 29.72 1007 10 16 0.00 0.00
1:51 am 01:51 Clear 52 11.1 21 -6.1 30 30 NW 9 15 29.72 1007 10 16 0.00 0.00
2:51 am 02:51 Clear 51 10.6 21 -6.1 31 31 N 6 9 29.74 1007 10 16 0.00 0.00
3:51 am 03:51 Clear 49 9.4 21 -6.1 33 33 N 6 9 29.76 1008 10 16 0.00 0.00
4:51 am 04:51 Clear 51 10.6 25 -3.9 36 36 NNW 8 13 29.77 1008 10 16 0.00 0.00
5:51 am 05:51 Sunny 51 10.6 26 -3.3 38 38 NNW 8 13 29.78 1009 10 16 0.00 0.00
6:51 am 06:51 Sunny 57 13.9 29 -1.7 34 34 NW 10 17 29.80 1009 10 16 0.00 0.00
7:51 am 07:51 Sunny 60 15.6 32 0 35 35 NW 16 26 29.82 1010 10 16 0.00 0.00
8:51 am 08:51 Sunny 62 16.7 33 0.6 34 34 NW 17 28 29.82 1010 10 16 0.00 0.00
9:51 am 09:51 Sunny 65 18.3 33 0.6 31 31 NW 18 30 29.81 1010 10 16 0.00 0.00
10:51 am 10:51 Partly Cloudy 66 18.9 34 1.1 30 30 NW 20 31 29.81 1010 10 16 0.00 0.00
11:51 am 11:51 Mostly Cloudy 67 19.4 34 1.1 30 30 NW 20 31 29.81 1009 10 16 0.00 0.00
12:51 pm 12:51 Sunny 70 21.1 34 1.1 27 27 NW 20 31 29.79 1009 10 16 0.00 0.00
1:51 pm 13:51 Cloudy 70 21.1 33 0.6 26 26 WNW 17 28 29.78 1009 10 16 0.00 0.00
2:51 pm 14:51 Mostly Sunny 71 21.7 32 0 24 24 NW 21 33 29.76 1008 10 16 0.00 0.00
3:51 pm 15:51 Cloudy 69 20.6 31 -0.6 24 24 W 18 30 29.75 1007 10 16 0.00 0.00
4:51 pm 16:51 Mostly Sunny 71 21.7 31 -0.6 23 23 WNW 21 33 29.73 1007 10 16 0.00 0.00
5:51 pm 17:51 Sunny 71 21.7 30 -1.1 22 22 WNW 21 33 29.72 1006 10 16 0.00 0.00
6:51 pm 18:51 Cloudy 68 20 30 -1.1 24 24 WNW 17 28 29.72 1006 10 16 0.00 0.00
7:51 pm 19:51 Mostly Clear 66 18.9 31 -0.6 27 27 WNW 10 17 29.75 1007 10 16 0.00 0.00
8:51 pm 20:51 Clear 62 16.7 31 -0.6 31 31 NW 7 11 29.76 1008 10 16 0.00 0.00
9:51 pm 21:51 Mostly Clear 60 15.6 30 -1.1 32 32 WNW 7 11 29.76 1008 10 16 0.00 0.00
10:51 pm 22:51 Cloudy 59 15 31 -0.6 35 35 NW 7 11 29.75 1008 10 16 0.00 0.00
11:51 pm 23:51 Mostly Clear 56 13.3 30 -1.1 37 37 N 8 13 29.75 1008 10 16 0.00 0.00

Powered by AerisWeather